[[{"header":{"parameterUnit":"m.s-1","parameterCategory":1,"la1":30.2991,"la2":30.254,"lo1":-89.0895,"lo2":-89.0444,"dy":0.0017,"dx":0.0017,"nx":28,"ny":28,"refTime":"2025-09-02T21:00:00:Z","depth":0,"parameterNumber":2,"parameterNumberName":"U-component_of_WINDS"},"data":[0,0,0,0,0,0,0,0,0,0,0,0,0,0,0,0,0,0,0,0,0,0,0,0,0,0,0,0,0,0,0,0,0,0,0,0,0,0,0,0,0,0,0,0,0,0,0,0,0,0,0,0,0,0,0,0,0,0,-0.6573,-0.6572,0,-0.65,-0.6499,-0.6498,-0.6437,-0.6436,-0.6436,-0.6435,-0.6357,-0.6356,-0.6354,0,0,0,0,0,0,0,0,0,0,0,0,0,-0.6658,-0.6657,-0.6573,-0.6572,-0.6571,-0.65,-0.6499,-0.6498,-0.6437,-0.6436,-0.6436,-0.6435,-0.6358,-0.6356,-0.6354,0,0,0,0,0,0,0,0,0,0,0,0,0,-0.6606,-0.6656,-0.6573,-0.6532,-0.6528,-0.65,-0.6499,-0.6497,-0.6437,-0.6436,-0.6435,-0.6435,-0.6358,-0.6356,-0.6354,-0.636,0,0,-0.6347,-0.6346,0,0,0,0,0,0,0,0,-0.6609,-0.6603,-0.6539,-0.6535,-0.653,-0.6477,-0.65,-0.6451,-0.6438,-0.6472,-0.6435,-0.6434,-0.6398,-0.6392,-0.638,-0.6356,-0.6353,-0.6347,-0.6346,-0.6345,-0.6344,0,0,0,0,0,0,0,-0.6613,-0.6606,-0.6544,-0.6538,-0.6533,-0.6517,-0.6509,-0.6491,-0.6441,-0.6469,-0.6464,-0.6456,-0.6395,-0.6383,-0.6378,-0.6352,-0.6347,-0.6345,-0.6344,-0.6343,-0.6329,-0.633,0,0,0,0,0,0,-0.6623,-0.661,-0.6546,-0.6542,-0.6568,-0.6516,-0.6507,-0.6495,-0.6441,-0.6432,-0.6457,-0.6454,-0.6387,-0.6381,-0.6375,-0.6379,-0.6345,-0.6343,-0.6342,-0.6328,-0.6329,-0.633,0,0,0,0,0,0,-0.6625,-0.6618,-0.6549,-0.6574,-0.6564,-0.6516,-0.6503,-0.6494,-0.6481,-0.6432,-0.6423,-0.6454,-0.6386,-0.6378,-0.6364,-0.6375,-0.6342,-0.634,-0.6327,-0.6328,-0.633,-0.6386,0,0,0,0,0,0,-0.6628,-0.6619,-0.6621,-0.6575,-0.6563,-0.654,-0.6503,-0.6493,-0.6478,-0.6473,-0.6427,-0.6418,-0.6385,-0.6368,-0.6362,-0.6372,-0.6338,-0.6326,-0.6328,-0.6329,-0.6383,-0.6389,-0.6394,0,0,0,0,0,-0.6631,-0.6639,-0.6622,-0.6614,-0.6565,-0.6541,-0.6534,-0.6496,-0.6479,-0.6481,-0.6449,-0.642,-0.6375,-0.6367,-0.636,-0.6369,-0.6325,-0.6327,-0.6329,-0.638,-0.6388,-0.6394,0,0,0,0,0,0,-0.6687,-0.6632,-0.6612,-0.6606,-0.6579,-0.6531,-0.6531,-0.6505,-0.6482,-0.6478,-0.6431,-0.6421,-0.6412,-0.6389,-0.6381,-0.6372,-0.6346,-0.6347,-0.6387,-0.6394,-0.64,-0.6405,-0.6336,0,0,0,0,0,-0.6699,-0.6685,-0.6637,-0.6636,-0.6624,-0.658,-0.6568,-0.6541,-0.6511,-0.6499,-0.6466,-0.6437,-0.6417,-0.6404,-0.6382,-0.6379,-0.6369,-0.6382,-0.6388,-0.6393,-0.6394,-0.6391,-0.6397,-0.6337,-0.6337,-0.6337,0,0,-0.6722,-0.6691,-0.6684,-0.6646,-0.6622,-0.6608,-0.6571,-0.6557,-0.6546,-0.6496,-0.6482,-0.6457,-0.6422,-0.6414,-0.6408,-0.6394,-0.6408,-0.6396,-0.64,-0.6398,-0.6394,-0.64,-0.6405,-0.6339,-0.6339,-0.6338,0,0,-0.6758,-0.6733,-0.6729,-0.6706,-0.6671,-0.6642,-0.6642,-0.6598,-0.658,-0.6565,-0.6528,-0.6514,-0.6479,-0.6456,-0.6439,-0.6468,-0.644,-0.6462,-0.6492,-0.649,-0.6495,-0.6499,-0.6509,-0.6514,-0.6463,-0.6464,-0.6464,0,-0.6791,-0.677,-0.673,-0.672,-0.6704,-0.666,-0.6656,-0.6635,-0.6594,-0.6584,-0.6569,-0.6526,-0.6499,-0.6485,-0.6492,-0.648,-0.6478,-0.6467,-0.6497,-0.6501,-0.6504,-0.6513,-0.6518,-0.6467,-0.6466,-0.6466,-0.6466,0,-0.6813,-0.6798,-0.6799,-0.6763,-0.6747,-0.674,-0.6699,-0.6688,-0.6663,-0.6636,-0.6621,-0.6588,-0.6559,-0.6554,-0.6528,-0.6536,-0.6529,-0.6506,-0.6479,-0.6513,-0.6521,-0.6525,-0.6471,-0.647,-0.6469,-0.6468,0,0,-0.688,-0.6823,-0.6824,-0.6807,-0.6766,-0.6753,-0.6744,-0.6717,-0.6709,-0.6682,-0.6673,-0.6646,-0.6625,-0.6607,-0.6579,-0.6577,-0.6603,-0.6554,-0.6553,-0.6565,-0.661,-0.6627,-0.6632,-0.6584,-0.6585,-0.6585,-0.6613,0,-0.6909,-0.6891,-0.6856,-0.6849,-0.6835,-0.6794,-0.6786,-0.676,-0.6734,-0.6718,-0.669,-0.6672,-0.6646,-0.6634,-0.6631,-0.66,-0.6611,-0.6598,-0.6575,-0.6575,-0.6585,-0.6636,-0.6654,-0.6682,-0.6616,-0.6616,-0.6617,0,-0.694,-0.6918,-0.691,-0.687,-0.6863,-0.6857,-0.683,-0.6816,-0.6785,-0.6766,-0.6747,-0.6717,-0.6704,-0.668,-0.6663,-0.6655,-0.6644,-0.6627,-0.6628,-0.6624,-0.6598,-0.6634,-0.669,-0.6695,-0.6621,-0.6621,-0.6621,0,-0.6991,-0.6959,-0.695,-0.6937,-0.689,-0.6887,-0.6867,-0.6835,-0.6822,-0.6798,-0.6789,-0.6764,-0.675,-0.6731,-0.6695,-0.668,-0.6682,-0.6654,-0.6666,-0.6667,-0.6668,-0.6668,-0.6723,-0.6661,-0.6661,-0.666,-0.666,0,-0.7027,-0.7024,-0.6972,-0.6967,-0.6962,-0.6922,-0.6918,-0.6894,-0.6867,-0.6856,-0.6818,-0.6809,-0.6761,-0.6746,-0.6718,-0.6708,-0.6702,-0.6687,-0.6679,-0.669,-0.6692,-0.6682,-0.6679,-0.6662,-0.6661,-0.6661,-0.6661,0,-0.7082,-0.7048,-0.7035,-0.6993,-0.6982,-0.6981,-0.6944,-0.6937,-0.691,-0.6897,-0.6892,-0.6849,-0.683,-0.6792,-0.6761,-0.6742,-0.6739,-0.6726,-0.675,-0.6745,-0.6759,-0.6758,-0.6809,-0.6814,-0.6749,-0.675,-0.675,0,-0.7107,-0.7104,-0.7062,-0.7053,-0.7035,-0.702,-0.7007,-0.6967,-0.6954,-0.692,-0.6917,-0.6895,-0.6875,-0.6846,-0.6812,-0.6789,-0.6775,-0.6794,-0.6771,-0.6782,-0.6775,-0.6776,-0.6776,-0.6799,-0.68,-0.6801,-0.6801,0,-0.7156,-0.7139,-0.7122,-0.7099,-0.7084,-0.7064,-0.7041,-0.7036,-0.6991,-0.6979,-0.6959,-0.6944,-0.6914,-0.6892,-0.6864,-0.6843,-0.6815,-0.6809,-0.6811,-0.6822,-0.6836,-0.6829,-0.6764,-0.6808,-0.6807,-0.6807,-0.6807,-0.6806,-0.7197,-0.7192,-0.7163,-0.7145,-0.7124,-0.7104,-0.7096,-0.7069,-0.7052,-0.7026,-0.7003,-0.6986,-0.6956,-0.6915,-0.6896,-0.6882,-0.6868,-0.687,-0.6871,-0.6872,-0.6877,-0.6839,-0.6876,-0.6876,-0.6876,-0.6876,-0.6876,0,-0.7244,-0.7223,-0.7207,-0.7178,-0.7164,-0.714,-0.7114,-0.7104,-0.7089,-0.7064,-0.7046,-0.7024,-0.7003,-0.6968,-0.6945,-0.694,-0.6927,-0.6935,-0.6935,-0.6931,-0.689,-0.6891,-0.6946,-0.6946,-0.6946,-0.6946,-0.6946,-0.6946,-0.7266,-0.7258,-0.7238,-0.722,-0.7198,-0.7182,-0.7169,-0.7151,-0.7131,-0.7108,-0.7092,-0.7069,-0.7041,-0.7015,-0.6995,-0.6985,-0.6978,-0.6991,-0.6978,-0.694,-0.6933,-0.6927,-0.6928,-0.699,-0.699,-0.7019,-0.702,-0.702]},{"header":{"parameterUnit":"m.s-1","parameterCategory":1,"la1":30.2991,"la2":30.254,"lo1":-89.0895,"lo2":-89.0444,"dy":0.0017,"dx":0.0017,"nx":28,"ny":28,"refTime":"2025-09-02T21:00:00:Z","depth":0,"parameterNumber":3,"parameterNumberName":"V-component_of_WINDS"},"data":[0,0,0,0,0,0,0,0,0,0,0,0,0,0,0,0,0,0,0,0,0,0,0,0,0,0,0,0,0,0,0,0,0,0,0,0,0,0,0,0,0,0,0,0,0,0,0,0,0,0,0,0,0,0,0,0,0,0,1.6705,1.6705,0,1.6698,1.6698,1.6698,1.6735,1.6736,1.6737,1.6738,1.6729,1.6728,1.6727,0,0,0,0,0,0,0,0,0,0,0,0,0,1.6746,1.6746,1.6705,1.6705,1.6704,1.6698,1.6698,1.6698,1.6735,1.6736,1.6738,1.6739,1.6729,1.6728,1.6726,0,0,0,0,0,0,0,0,0,0,0,0,0,1.6733,1.6745,1.6705,1.6722,1.6724,1.6698,1.6698,1.6698,1.6735,1.6736,1.6738,1.674,1.673,1.6728,1.6726,1.6682,0,0,1.672,1.672,0,0,0,0,0,0,0,0,1.6733,1.6731,1.672,1.6721,1.6723,1.6719,1.6709,1.6692,1.6734,1.6731,1.6739,1.674,1.6724,1.6723,1.6718,1.6682,1.6681,1.672,1.6719,1.6718,1.6718,0,0,0,0,0,0,0,1.6734,1.6732,1.6702,1.672,1.6721,1.673,1.6729,1.6706,1.6718,1.6731,1.6734,1.6733,1.6725,1.672,1.6718,1.6681,1.672,1.6719,1.6717,1.6717,1.6605,1.6603,0,0,0,0,0,0,1.6733,1.6732,1.6702,1.6702,1.6732,1.6727,1.6727,1.6719,1.6719,1.672,1.6731,1.6734,1.6722,1.672,1.6718,1.6663,1.6718,1.6717,1.6715,1.6606,1.6604,1.6602,0,0,0,0,0,0,1.6734,1.673,1.6702,1.6718,1.6715,1.6725,1.6715,1.6718,1.6712,1.6719,1.6721,1.6723,1.6723,1.6721,1.669,1.6664,1.6716,1.6714,1.6609,1.6606,1.6603,1.6556,0,0,0,0,0,0,1.6735,1.673,1.6715,1.6717,1.6714,1.6675,1.6713,1.6716,1.6709,1.6713,1.6712,1.6713,1.6724,1.6693,1.6688,1.6662,1.6712,1.6611,1.6607,1.6604,1.656,1.6552,1.6545,0,0,0,0,0,1.6737,1.6702,1.6714,1.671,1.6694,1.6674,1.6672,1.6686,1.6707,1.669,1.6694,1.6713,1.6668,1.6689,1.6684,1.6657,1.6613,1.6608,1.6604,1.6563,1.6553,1.6545,0,0,0,0,0,0,1.6695,1.6702,1.6716,1.6681,1.6676,1.668,1.666,1.6676,1.6665,1.6669,1.6687,1.6686,1.6652,1.6652,1.6676,1.6613,1.6644,1.6638,1.6614,1.6605,1.6597,1.6597,1.6711,0,0,0,0,0,1.6682,1.6666,1.6673,1.6641,1.6639,1.6649,1.6641,1.6652,1.6648,1.6647,1.6649,1.6643,1.6627,1.6616,1.6603,1.6561,1.6559,1.6539,1.6532,1.6526,1.652,1.6495,1.6485,1.6588,1.6589,1.6589,0,0,1.6655,1.6657,1.6645,1.6633,1.6631,1.6612,1.6648,1.6627,1.6613,1.6643,1.6614,1.6615,1.661,1.6573,1.6556,1.6572,1.6492,1.6521,1.6516,1.6513,1.649,1.648,1.6471,1.6586,1.6586,1.6587,0,0,1.6595,1.6596,1.6568,1.6565,1.6562,1.6569,1.6563,1.6564,1.6566,1.6537,1.6559,1.6541,1.6515,1.6509,1.6503,1.6439,1.6455,1.6434,1.6395,1.637,1.6361,1.6354,1.6328,1.6319,1.6429,1.6429,1.6429,0,1.6561,1.6534,1.6552,1.6529,1.6522,1.6549,1.652,1.6516,1.6508,1.6502,1.652,1.6485,1.6484,1.6444,1.6428,1.6423,1.6414,1.6433,1.6362,1.6354,1.6348,1.6323,1.6314,1.6426,1.6427,1.6427,1.6427,0,1.6491,1.6472,1.645,1.6442,1.6432,1.6407,1.6418,1.6407,1.6418,1.6423,1.6392,1.6391,1.6376,1.6368,1.638,1.6329,1.6339,1.6359,1.6389,1.6335,1.6312,1.6303,1.6422,1.6423,1.6424,1.6425,0,0,1.6404,1.6405,1.6396,1.6391,1.6389,1.6374,1.6349,1.6335,1.6323,1.6316,1.6293,1.627,1.6287,1.628,1.6291,1.627,1.6215,1.6292,1.6292,1.6275,1.6156,1.6138,1.6127,1.6227,1.6226,1.6224,1.6155,0,1.6343,1.63,1.6314,1.627,1.6251,1.6276,1.6254,1.6249,1.6253,1.6236,1.624,1.6222,1.6249,1.6244,1.6224,1.6226,1.6191,1.6232,1.6203,1.6202,1.6201,1.6116,1.6098,1.6033,1.6147,1.6145,1.6144,0,1.6265,1.6255,1.6209,1.6208,1.62,1.618,1.6167,1.6152,1.6146,1.615,1.6141,1.6156,1.6129,1.6162,1.6123,1.615,1.614,1.6139,1.6137,1.6132,1.6168,1.6106,1.6013,1.6002,1.6131,1.6132,1.6133,0,1.6202,1.6178,1.6146,1.6142,1.614,1.6125,1.6123,1.6119,1.6109,1.6098,1.6091,1.6076,1.6067,1.6055,1.6064,1.6088,1.6023,1.6057,1.6023,1.6022,1.6006,1.6006,1.5906,1.6004,1.6004,1.6004,1.6005,0,1.6131,1.6101,1.6117,1.6097,1.6064,1.608,1.6046,1.6047,1.6043,1.6022,1.6044,1.6024,1.604,1.6021,1.6028,1.5993,1.599,1.599,1.5992,1.5987,1.5986,1.5978,1.5982,1.6002,1.6002,1.6003,1.6003,0,1.6054,1.6064,1.6031,1.6032,1.6032,1.6006,1.6007,1.5987,1.5993,1.5966,1.5961,1.5969,1.5947,1.5956,1.5934,1.5938,1.5892,1.5902,1.5894,1.5895,1.5859,1.5861,1.5748,1.5733,1.5843,1.5842,1.5841,0,1.6006,1.5983,1.5982,1.597,1.5967,1.5948,1.5937,1.5953,1.594,1.5931,1.5912,1.5892,1.5877,1.5841,1.5843,1.5825,1.5832,1.5794,1.583,1.5824,1.5828,1.5828,1.5824,1.5786,1.5785,1.5784,1.5783,0,1.5919,1.5925,1.591,1.5895,1.5882,1.5871,1.5862,1.5851,1.5865,1.585,1.5828,1.5816,1.5793,1.5772,1.5755,1.5752,1.5768,1.5772,1.5762,1.5755,1.575,1.5749,1.5871,1.5774,1.5775,1.5775,1.5776,1.5776,1.5853,1.5833,1.5828,1.581,1.5804,1.5795,1.5776,1.5779,1.5761,1.5743,1.5753,1.5727,1.572,1.5699,1.5694,1.5672,1.5687,1.5674,1.567,1.5666,1.566,1.5756,1.567,1.567,1.567,1.567,1.5671,0,1.5764,1.5763,1.5745,1.5732,1.5716,1.5735,1.5725,1.5711,1.5687,1.568,1.5664,1.5637,1.5617,1.5618,1.5598,1.558,1.5587,1.5574,1.5574,1.5572,1.5649,1.5658,1.5569,1.5569,1.5569,1.5569,1.5569,1.5569,1.5716,1.5682,1.5687,1.565,1.5648,1.5623,1.5615,1.5606,1.56,1.5569,1.5552,1.5553,1.5548,1.5528,1.5509,1.5509,1.55,1.5483,1.5486,1.5557,1.5567,1.5577,1.5585,1.5482,1.5482,1.5411,1.541,1.5409]}]]